sat.trackr.live / text

‹ back to catalog

STARLINK-32362

NORAD 61845 · 2024-202A

PAYLOAD ACTIVE UNKNOWN

§ Identity

Operator
Country
US
Launch date
2024-11-07
Launch site
AFETR
Launch vehicle
Mass (kg)
RCS (m²)

Purposes: comms

External: N2YO · Heavens-Above · Gunter

§ Orbital elements

Epoch: 2026-09-21T21:20:33.931104Z

Period
94.27 min
Inclination
43.0025°
Eccentricity
0.0001072
Mean motion
15.27588656 rev/d
Perigee alt
482.3 km
Apogee alt
483.8 km
Semi-major
6,861.2 km
B*
3.6887e-5
RAAN
198.7288°
Arg perigee
268.5045°
Mean anomaly
91.5684°
Rev number
10,605

§ Raw data

STARLINK-323621 61845U 24202A   26264.88928161  .00000753  00000+0  36887-4 0  99972 61845  43.0025 198.7288 0001072 268.5045  91.5684 15.27588656106051

JSON: /api/v1/satellites/61845 · /tle

For live sub-satellite position, see the globe view (requires WebGL).

§ Visibility from observer

Set your observer location to see the next 7 days of passes ≥ 10°. The values pass through the URL so the page stays shareable.

No JS? Fill the form by hand. The geolocation button needs JavaScript.